{"data":{"norad_id":61545,"intl_designator":"2024-184P","name":"STARLINK-32406","alt_names":[],"object_type":"PAYLOAD","status":"ACTIVE","operator":null,"country":"US","launch_date":"2024-10-15","launch_site_code":"AFWTR","launch_vehicle":null,"mission":null,"orbit_class":"UNKNOWN","rcs_meters":null,"size_class":null,"mass_kg":null,"dimensions":null,"purposes":["comms"],"wikipedia_slug":null,"has_3d_model":false,"image_url":null,"decayed_at":null,"tle_current":{"epoch":"2026-05-25T00:41:31.941024Z","epoch_age_seconds":83036,"freshness":"FRESH","line1":"1 61545U 24184P   26145.02884191  .00001939  00000+0  77625-4 0  9993","line2":"2 61545  53.1617  19.4399 0001262 101.5889 258.5254 15.30179659 90190","mean_motion":15.30179659,"eccentricity":0.0001262,"inclination_deg":53.1617,"raan_deg":19.4399,"arg_perigee_deg":101.5889,"mean_anomaly_deg":258.5254,"bstar":7.7625e-5,"rev_number":9019,"period_min":94.106596668594,"perigee_km":474.41090395568,"apogee_km":476.14070534758,"semimajor_km":6853.4128046516,"source":"CELESTRAK","updated_at":"2026-05-25T13:38:19.399753Z"}}}